Location: Julian California
(33.0790°N, 116.6010°W)
Time: 10:27:41
(UTC-07:00)

Cosmos 2292 Rocket - Pass Details

Date: 19 May 2017
Orbit: 380 x 1471 km, 83.0° (Epoch: 23 September)

Event Time Altitude Azimuth Distance (km) Brightness Sun altitude
Rises 20:16:29 0° 5° (N) 2,859 7.3 -7.2°
Reaches altitude 10° 20:18:33 10° 13° (NNE) 2,087 6.5 -7.6°
Maximum altitude 20:22:58 41° 84° (E) 1,155 4.6 -8.4°
Drops below altitude 10° 20:28:45 10° 153° (SSE) 2,752 6.4 -9.4°
Enters shadow 20:30:22 - 157° (SSE) 3,342 6.8 -9.7°
